Location: Newark
(48.8656°N, 2.3211°E)
Time: 20:04:15
(UTC+00:00)

Envisat - Pass Details

Date: 15 December 2019
Orbit: 764 x 766 km, 98.1° (Epoch: 28 January)

Event Time Altitude Azimuth Distance (km) Brightness Sun altitude
Rises 06:32:14 0° 16° (NNE) 3,246 6.2 -10.1°
Reaches altitude 10° 06:34:34 10° 19° (NNE) 2,315 5.4 -9.7°
Maximum altitude 06:39:39 64° 102° (ESE) 847 3.6 -9.0°
Drops below altitude 10° 06:44:40 10° 184° (S) 2,297 5.8 -8.2°
Sets 06:46:59 0° 187° (S) 3,218 6.5 -7.9°
